Location: Kuffner-Sternwarte
(48.2130°N, 16.2960°E)
Time: 03:29:51
(UTC+02:00)

COROT - Pass Details

Date: 30 March 2017
Orbit: 600 x 890 km, 90.0° (Epoch: 20 September)

Event Time Altitude Azimuth Distance (km) Brightness Sun altitude
Rises 00:05:42 0° 13° (NNE) 3,168 9.9 -36.7°
Reaches altitude 10° 00:08:24 10° 27° (NNE) 2,293 8.9 -36.9°
Enters shadow 00:09:28 15° 37° (NE) 2,003 8.5 -36.9°
